Weather History for New Orleans Lakefront, LA

Change the Weather History Date:

Wednesday, January 30, 2013

  Actual Average Record
Temperature  
Mean Temperature 61 °F 54 °F  
Max Temperature 74 °F 63 °F 82 °F (1957)
Min Temperature 48 °F 45 °F 18 °F (1966)
Degree Days  
Heating Degree Days 4 11  
Month to date heating degree days 261 359  
Since 1 July heating degree days 669 840  
Cooling Degree Days 0 1  
Month to date cooling degree days 25 13  
Year to date cooling degree days 25 13  
Growing Degree Days 16 (Base 50)    
Moisture  
Dew Point 53 °F    
Average Humidity 66    
Maximum Humidity 93    
Minimum Humidity 39    
Precipitation  
Precipitation 0.79 in 0.17 in 2.68 in (1991)
Month to date precipitation 6.59 4.98  
Year to date precipitation 6.59 4.98  
Snow  
Snow 0.00 in - - ()
Month to date snowfall 0.0  
Since 1 July snowfall 0.0  
Snow Depth 0.00 in    
Sea Level Pressure  
Sea Level Pressure 29.83 in    
Wind  
Wind Speed 17 mph (West)    
Max Wind Speed 29 mph    
Max Gust Speed 38 mph    
Visibility 9 miles    
Events Rain    
T = Trace of Precipitation, MM = Missing Value Source: NWS Daily Summary

Daily Weather History Graph

Daily Weather History Graph

Search for Another Location

Airport:

Trip Planner

Search our weather history database for the weather conditions in past years. The results will help you decide how hot, cold, wet, or windy it might be!

Date:

Astronomy

Jan. 30, 2013 Rise Set
Actual Time 6:51 AM CST 5:35 PM CST
Civil Twilight 6:26 AM CST 6:00 PM CST
Nautical Twilight 5:57 AM CST 6:29 PM CST
Astronomical Twilight 5:29 AM CST 6:58 PM CST
Moon 9:12 PM CST (1/30) 8:38 AM CST (1/30)
Length of Visible Light 11h 34m
Length of Day
10h 44m
Waning Gibbous, 87% of the Moon is Illuminated
Jan 30
Waning Gibbous
Feb 3
Last Quarter
Feb 10
New
Feb 17
First Quarter
Feb 25
Full

Hourly Weather History & Observations

Time (CST) Temp. Dew Point Humidity Pressure Visibility Wind Dir Wind Speed Gust Speed Precip Events Conditions
12:53 AM 75.9 °F 69.1 °F 79% 29.77 in 10.0 mi South 23.0 mph 32.2 mph N/A   Overcast
1:53 AM 77.0 °F 68.0 °F 74% 29.76 in 10.0 mi South 27.6 mph 40.3 mph N/A   Overcast
2:53 AM 75.9 °F 68.0 °F 76% 29.73 in 10.0 mi South 25.3 mph 34.5 mph N/A   Overcast
3:13 AM 75.2 °F 68.0 °F 78% 29.75 in 10.0 mi South 24.2 mph 34.5 mph N/A   Mostly Cloudy
3:53 AM 77.0 °F 68.0 °F 74% 29.72 in 10.0 mi South 26.5 mph 35.7 mph N/A   Overcast
4:53 AM 77.0 °F 68.0 °F 74% 29.70 in 10.0 mi SSW 19.6 mph 36.8 mph N/A   Overcast
5:02 AM 77.0 °F 68.0 °F 74% 29.70 in 10.0 mi South 25.3 mph 34.5 mph N/A   Overcast
5:10 AM 77.0 °F 68.0 °F 74% 29.69 in 10.0 mi SSW 26.5 mph 34.5 mph N/A   Overcast
5:53 AM 78.1 °F 68.0 °F 71% 29.66 in 10.0 mi South 29.9 mph 39.1 mph N/A   Overcast
6:53 AM 77.0 °F 68.0 °F 74% 29.68 in 10.0 mi SSW 26.5 mph 38.0 mph N/A   Overcast
7:53 AM 72.0 °F 64.0 °F 76% 29.72 in 6.0 mi NW 20.7 mph 35.7 mph 0.01 in Rain Light Rain
8:01 AM 62.6 °F 55.4 °F 77% 29.75 in 6.0 mi WNW 18.4 mph 25.3 mph 0.02 in Rain Light Rain
8:11 AM 62.6 °F 55.4 °F 77% 29.75 in 1.8 mi NW 24.2 mph 35.7 mph 0.09 in Rain Rain
8:53 AM 60.1 °F 55.0 °F 83% 29.76 in 1.0 mi WNW 21.9 mph - 0.73 in Rain Rain
8:56 AM 60.8 °F 53.6 °F 77% 29.78 in 4.0 mi WNW 21.9 mph - 0.01 in Rain Light Rain
9:53 AM 59.0 °F 51.1 °F 75% 29.81 in 7.0 mi WNW 13.8 mph - 0.14 in Rain Rain
10:53 AM 60.1 °F 53.1 °F 78% 29.81 in 7.0 mi West 13.8 mph - 0.08 in Rain Light Rain
11:53 AM 61.0 °F 52.0 °F 72% 29.81 in 10.0 mi West 13.8 mph - 0.00 in   Overcast
12:53 PM 63.0 °F 50.0 °F 63% 29.82 in 10.0 mi West 18.4 mph - N/A   Overcast
1:53 PM 63.0 °F 44.1 °F 50% 29.81 in 10.0 mi West 19.6 mph - N/A   Overcast
2:53 PM 63.0 °F 37.9 °F 40% 29.82 in 10.0 mi West 29.9 mph - N/A   Overcast
3:53 PM 64.0 °F 39.9 °F 41% 29.85 in 10.0 mi West 24.2 mph - N/A   Mostly Cloudy
4:53 PM 62.1 °F 39.9 °F 44% 29.88 in 10.0 mi WNW 29.9 mph 35.7 mph N/A   Clear
5:53 PM 61.0 °F 41.0 °F 48% 29.93 in 10.0 mi NW 31.1 mph 39.1 mph N/A   Clear
6:53 PM 59.0 °F 37.9 °F 46% 29.98 in 10.0 mi NW 29.9 mph 38.0 mph N/A   Clear
7:53 PM 57.0 °F 37.9 °F 49% 30.04 in 10.0 mi NW 34.5 mph 42.6 mph N/A   Clear
8:53 PM 55.0 °F 36.0 °F 49% 30.09 in 10.0 mi NW 29.9 mph 35.7 mph N/A   Clear
9:53 PM 53.1 °F 34.0 °F 48% 30.13 in 10.0 mi NW 27.6 mph 38.0 mph N/A   Clear
10:53 PM 53.1 °F 33.1 °F 47% 30.15 in 10.0 mi NW 26.5 mph 36.8 mph N/A   Clear
11:53 PM 53.1 °F 33.1 °F 47% 30.18 in 10.0 mi NW 26.5 mph - N/A   Clear